Location: Artiguedieu
(43.5000°N, 0.5454°E)
Time: 20:38:20
(UTC+00:00)

Transit 2A - Pass Details

Date: 29 July 2021
Orbit: 594 x 964 km, 66.7° (Epoch: 28 September)

Event Time Altitude Azimuth Distance (km) Brightness Sun altitude
Rises 08:37:51 0° 263° (W) 2,860 8.5 40.3°
Reaches altitude 10° 08:41:00 10° 288° (WNW) 1,999 7.8 40.9°
Maximum altitude 08:43:32 15° 323° (NW) 1,750 7.7 41.3°
Drops below altitude 10° 08:46:10 10° 357° (N) 2,096 8.2 41.8°
Sets 08:49:36 0° 21° (NNE) 3,093 9.2 42.4°
